ADZ6FE LTFJ-LGSM

Flight info

Callsign ADZ6FE
Flight time 0h 53m
Altitude 32000
Route MARMA UY255 BIG/N0463F310 UG80 IMR R32 NISOS H59 ORMOS
Aircraft B738/M-SDE2E3FGHIRWXY/LB1

Departure

Time 2026-04-29 17:46
Airport Istanbul Sabiha Gökçen International Airport (LTFJ)

Arrival

Time 2026-04-29 18:40
Airport Samos Airport (LGSM)
Time Latitude Longitude Altitude Speed Heading
2026-04-29 17:02 40.90943 29.32024 311 ft 0 kts 64°
2026-04-29 17:02 40.90940 29.32021 312 ft 0 kts 178°
2026-04-29 17:03 40.89582 29.30856 307 ft 0 kts 33°
2026-04-29 17:03 40.89549 29.30861 306 ft 0 kts 33°
2026-04-29 17:33 40.89553 29.30864 306 ft 3 kts 32°
2026-04-29 17:34 40.89578 29.30868 319 ft 4 kts 349°
2026-04-29 17:34 40.89603 29.30834 306 ft 7 kts 305°
2026-04-29 17:34 40.89627 29.30781 308 ft 6 kts 293°
2026-04-29 17:34 40.89618 29.30727 307 ft 6 kts 241°
2026-04-29 17:35 40.89591 29.30661 306 ft 6 kts 244°
2026-04-29 17:35 40.89561 29.30577 307 ft 6 kts 246°
2026-04-29 17:35 40.89539 29.30518 309 ft 9 kts 243°
2026-04-29 17:36 40.89509 29.30437 307 ft 10 kts 245°
2026-04-29 17:36 40.89480 29.30357 305 ft 10 kts 243°
2026-04-29 17:36 40.89451 29.30278 306 ft 9 kts 244°
2026-04-29 17:36 40.89424 29.30201 304 ft 9 kts 244°
2026-04-29 17:37 40.89394 29.30121 305 ft 7 kts 244°
2026-04-29 17:37 40.89364 29.30084 304 ft 6 kts 193°
2026-04-29 17:37 40.89338 29.30115 308 ft 6 kts 76°
2026-04-29 17:37 40.89360 29.30162 304 ft 6 kts 59°
2026-04-29 17:38 40.89379 29.30211 305 ft 6 kts 64°
2026-04-29 17:38 40.89408 29.30255 305 ft 8 kts 33°
2026-04-29 17:38 40.89470 29.30272 306 ft 11 kts 348°
2026-04-29 17:38 40.89519 29.30242 304 ft 12 kts 333°
2026-04-29 17:39 40.89608 29.30183 305 ft 11 kts 330°
2026-04-29 17:39 40.89637 29.30091 305 ft 11 kts 272°
2026-04-29 17:39 40.89636 29.29991 304 ft 11 kts 271°
2026-04-29 17:39 40.89638 29.29959 304 ft 11 kts 275°
2026-04-29 17:41 40.89641 29.29877 304 ft 10 kts 274°
2026-04-29 17:42 40.89637 29.29783 303 ft 10 kts 264°
2026-04-29 17:42 40.89613 29.29697 303 ft 10 kts 244°
2026-04-29 17:42 40.89584 29.29618 303 ft 10 kts 244°
2026-04-29 17:42 40.89556 29.29539 303 ft 9 kts 245°
2026-04-29 17:43 40.89528 29.29463 302 ft 9 kts 245°
2026-04-29 17:43 40.89510 29.29414 304 ft 9 kts 243°
2026-04-29 17:43 40.89474 29.29319 302 ft 9 kts 244°
2026-04-29 17:43 40.89436 29.29263 302 ft 8 kts 210°
2026-04-29 17:44 40.89397 29.29258 304 ft 8 kts 165°
2026-04-29 17:44 40.89354 29.29281 304 ft 0 kts 159°
2026-04-29 17:44 40.89352 29.29282 304 ft 1 kts 159°
2026-04-29 17:45 40.89309 29.29306 303 ft 12 kts 157°
2026-04-29 17:45 40.89279 29.29363 303 ft 6 kts 76°
2026-04-29 17:45 40.89285 29.29377 305 ft 1 kts 62°
2026-04-29 17:45 40.89317 29.29463 303 ft 31 kts 64°
2026-04-29 17:46 40.89527 29.30029 306 ft 103 kts 64°
2026-04-29 17:46 40.89928 29.31117 402 ft 151 kts 62°
2026-04-29 17:46 40.90391 29.32411 1036 ft 160 kts 64°
2026-04-29 17:46 40.90862 29.33749 1788 ft 169 kts 66°
2026-04-29 17:47 40.91388 29.35258 2337 ft 190 kts 66°
2026-04-29 17:47 40.92005 29.36944 2549 ft 217 kts 64°
2026-04-29 17:47 40.92627 29.38803 3029 ft 231 kts 77°
2026-04-29 17:47 40.92599 29.40977 3651 ft 245 kts 103°
2026-04-29 17:48 40.91955 29.43113 4375 ft 257 kts 120°
2026-04-29 17:48 40.90634 29.44743 5139 ft 268 kts 149°
2026-04-29 17:48 40.88940 29.45868 5917 ft 276 kts 155°
2026-04-29 17:48 40.87184 29.46924 6612 ft 279 kts 155°
2026-04-29 17:49 40.85382 29.47904 6953 ft 281 kts 167°
2026-04-29 17:49 40.83466 29.47962 7000 ft 278 kts 196°
2026-04-29 17:49 40.81726 29.46889 7222 ft 278 kts 219°
2026-04-29 17:49 40.80266 29.45197 7997 ft 280 kts 225°
2026-04-29 17:50 40.78846 29.43439 8889 ft 281 kts 225°
2026-04-29 17:50 40.77414 29.41664 9744 ft 284 kts 226°
2026-04-29 17:50 40.75953 29.39870 10452 ft 292 kts 226°
2026-04-29 17:50 40.74424 29.38002 10673 ft 316 kts 225°
2026-04-29 17:51 40.72723 29.35935 10860 ft 340 kts 225°
2026-04-29 17:51 40.71186 29.33478 11004 ft 357 kts 244°
2026-04-29 17:51 40.70490 29.30363 11448 ft 364 kts 266°
2026-04-29 17:51 40.70743 29.27046 12132 ft 365 kts 286°
2026-04-29 17:52 40.71527 29.23854 12892 ft 367 kts 289°
2026-04-29 17:52 40.72077 29.21743 13340 ft 370 kts 289°
2026-04-29 17:52 40.73180 29.17401 14209 ft 375 kts 288°
2026-04-29 17:52 40.73986 29.14115 14831 ft 378 kts 287°
2026-04-29 17:53 40.74777 29.10839 15469 ft 380 kts 287°
2026-04-29 17:53 40.75582 29.07498 16094 ft 383 kts 287°
2026-04-29 17:53 40.76389 29.04139 16718 ft 385 kts 287°
2026-04-29 17:53 40.77133 29.00730 17285 ft 389 kts 281°
2026-04-29 17:54 40.77417 28.97171 17872 ft 392 kts 274°
2026-04-29 17:54 40.77567 28.93566 18456 ft 395 kts 274°
2026-04-29 17:54 40.77724 28.89936 18952 ft 398 kts 274°
2026-04-29 17:54 40.77914 28.86284 19455 ft 400 kts 275°
2026-04-29 17:55 40.78123 28.82606 19954 ft 403 kts 275°
2026-04-29 17:55 40.78338 28.78910 20434 ft 405 kts 275°
2026-04-29 17:55 40.78552 28.75189 20917 ft 408 kts 275°
2026-04-29 17:55 40.78765 28.71444 21388 ft 410 kts 275°
2026-04-29 17:56 40.78977 28.67678 21837 ft 413 kts 275°
2026-04-29 17:56 40.79190 28.63882 22277 ft 416 kts 275°
2026-04-29 17:56 40.79402 28.60064 22717 ft 418 kts 274°
2026-04-29 17:56 40.79473 28.56215 23136 ft 421 kts 269°
2026-04-29 17:57 40.79345 28.52338 23562 ft 424 kts 267°
2026-04-29 17:57 40.79151 28.48443 23926 ft 426 kts 267°
2026-04-29 17:57 40.78958 28.44542 24300 ft 427 kts 267°
2026-04-29 17:57 40.78783 28.40620 24681 ft 428 kts 268°
2026-04-29 17:58 40.78628 28.36687 25040 ft 430 kts 268°
2026-04-29 17:58 40.78484 28.32786 25364 ft 432 kts 268°
2026-04-29 17:58 40.78341 28.28825 25703 ft 433 kts 268°
2026-04-29 17:58 40.78197 28.24848 26027 ft 434 kts 269°
2026-04-29 17:59 40.78200 28.20864 26342 ft 435 kts 272°
2026-04-29 17:59 40.78344 28.16851 26655 ft 437 kts 274°
2026-04-29 17:59 40.78529 28.12845 26966 ft 438 kts 274°
2026-04-29 17:59 40.78709 28.08818 27267 ft 439 kts 274°
2026-04-29 18:00 40.78868 28.04792 27642 ft 439 kts 274°
2026-04-29 18:00 40.79007 28.00833 28105 ft 436 kts 274°
2026-04-29 18:00 40.79137 27.96851 28606 ft 433 kts 273°
2026-04-29 18:00 40.79263 27.92891 29046 ft 431 kts 274°
2026-04-29 18:01 40.79388 27.88939 29440 ft 431 kts 274°
2026-04-29 18:01 40.79482 27.84990 29845 ft 430 kts 272°
2026-04-29 18:01 40.79409 27.81058 30267 ft 430 kts 263°
2026-04-29 18:01 40.78569 27.77272 30610 ft 434 kts 248°
2026-04-29 18:02 40.77018 27.73837 30940 ft 439 kts 237°
2026-04-29 18:02 40.74914 27.70877 31216 ft 448 kts 223°
2026-04-29 18:02 40.72277 27.68639 31488 ft 454 kts 214°
2026-04-29 18:02 40.69484 27.66668 31785 ft 455 kts 213°
2026-04-29 18:03 40.66678 27.64742 32062 ft 455 kts 213°
2026-04-29 18:03 40.61063 27.60791 32107 ft 457 kts 214°
2026-04-29 18:04 40.55454 27.56913 32096 ft 457 kts 208°
2026-04-29 18:04 40.49484 27.54089 32103 ft 460 kts 203°
2026-04-29 18:05 40.43398 27.51453 32164 ft 462 kts 204°
2026-04-29 18:05 40.37280 27.48711 32106 ft 463 kts 204°
2026-04-29 18:06 40.31203 27.45926 32102 ft 462 kts 204°
2026-04-29 18:06 40.25127 27.43127 32102 ft 464 kts 204°
2026-04-29 18:07 40.19042 27.40334 32101 ft 463 kts 204°
2026-04-29 18:07 40.12993 27.37569 32110 ft 463 kts 204°
2026-04-29 18:08 40.06904 27.34793 32370 ft 462 kts 204°
2026-04-29 18:08 40.03870 27.33409 32626 ft 462 kts 204°
2026-04-29 18:08 40.00841 27.32029 32896 ft 462 kts 204°
2026-04-29 18:08 39.97761 27.30763 33099 ft 467 kts 198°
2026-04-29 18:09 39.94527 27.30041 33110 ft 474 kts 191°
2026-04-29 18:09 39.87987 27.28980 33090 ft 471 kts 192°
2026-04-29 18:10 39.81519 27.27794 33090 ft 468 kts 192°
2026-04-29 18:10 39.75068 27.26653 33088 ft 466 kts 191°
2026-04-29 18:11 39.68674 27.25590 33083 ft 465 kts 191°
2026-04-29 18:11 39.62242 27.24516 33084 ft 466 kts 191°
2026-04-29 18:12 39.55802 27.23434 33079 ft 468 kts 191°
2026-04-29 18:12 39.49339 27.22346 33081 ft 469 kts 191°
2026-04-29 18:13 39.42865 27.21170 33084 ft 469 kts 192°
2026-04-29 18:13 39.36386 27.19955 33084 ft 470 kts 192°
2026-04-29 18:14 39.29934 27.18759 33076 ft 471 kts 192°
2026-04-29 18:14 39.23439 27.17568 33063 ft 471 kts 192°
2026-04-29 18:15 39.16940 27.16381 33073 ft 471 kts 192°
2026-04-29 18:15 39.10447 27.15196 33056 ft 471 kts 191°
2026-04-29 18:16 39.03959 27.14015 33063 ft 470 kts 192°
2026-04-29 18:16 38.97484 27.12832 33059 ft 469 kts 192°
2026-04-29 18:17 38.91011 27.11626 33051 ft 469 kts 192°
2026-04-29 18:17 38.84595 27.10430 33058 ft 469 kts 191°
2026-04-29 18:18 38.78128 27.09231 33047 ft 469 kts 191°
2026-04-29 18:18 38.71699 27.07890 33036 ft 466 kts 198°
2026-04-29 18:19 38.65721 27.04783 32884 ft 463 kts 208°
2026-04-29 18:19 38.62757 27.03008 31557 ft 475 kts 208°
2026-04-29 18:19 38.59757 27.01212 30565 ft 478 kts 208°
2026-04-29 18:19 38.56744 26.99430 29743 ft 475 kts 207°
2026-04-29 18:20 38.53787 26.97703 29012 ft 471 kts 207°
2026-04-29 18:20 38.50811 26.95982 28216 ft 468 kts 207°
2026-04-29 18:20 38.47868 26.94290 27904 ft 455 kts 207°
2026-04-29 18:20 38.44994 26.92642 27128 ft 452 kts 207°
2026-04-29 18:21 38.42108 26.90986 26002 ft 458 kts 206°
2026-04-29 18:21 38.39184 26.89309 25165 ft 459 kts 206°
2026-04-29 18:21 38.36286 26.87650 24499 ft 455 kts 206°
2026-04-29 18:21 38.33410 26.86006 23849 ft 451 kts 206°
2026-04-29 18:22 38.30561 26.84378 23111 ft 448 kts 206°
2026-04-29 18:22 38.27768 26.82782 22417 ft 443 kts 206°
2026-04-29 18:22 38.24974 26.81187 21780 ft 437 kts 206°
2026-04-29 18:22 38.22214 26.79612 21133 ft 433 kts 206°
2026-04-29 18:23 38.19472 26.78050 20503 ft 428 kts 206°
2026-04-29 18:23 38.16768 26.76509 19887 ft 424 kts 206°
2026-04-29 18:23 38.14083 26.74980 19270 ft 421 kts 206°
2026-04-29 18:23 38.11413 26.73462 18662 ft 417 kts 206°
2026-04-29 18:24 38.08767 26.71958 17993 ft 415 kts 205°
2026-04-29 18:24 38.06170 26.70483 17354 ft 412 kts 205°
2026-04-29 18:24 38.03806 26.69142 16784 ft 408 kts 205°
2026-04-29 18:24 38.01223 26.67678 16157 ft 405 kts 205°
2026-04-29 18:25 37.98658 26.66225 15524 ft 402 kts 205°
2026-04-29 18:25 37.96101 26.64777 14875 ft 400 kts 205°
2026-04-29 18:25 37.93563 26.63341 14246 ft 398 kts 205°
2026-04-29 18:25 37.91032 26.61912 13580 ft 397 kts 205°
2026-04-29 18:26 37.88396 26.60951 12911 ft 396 kts 186°
2026-04-29 18:26 37.85665 26.61189 12306 ft 394 kts 166°
2026-04-29 18:26 37.83187 26.62550 11901 ft 385 kts 147°
2026-04-29 18:26 37.80921 26.64244 11624 ft 375 kts 160°
2026-04-29 18:27 37.78385 26.64677 11304 ft 366 kts 187°
2026-04-29 18:27 37.76046 26.63628 11078 ft 353 kts 216°
2026-04-29 18:27 37.74052 26.61897 10840 ft 346 kts 208°
2026-04-29 18:27 37.71791 26.60974 10564 ft 340 kts 189°
2026-04-29 18:28 37.69458 26.60861 10340 ft 330 kts 177°
2026-04-29 18:28 37.67195 26.61142 10120 ft 324 kts 172°
2026-04-29 18:28 37.65035 26.61558 10046 ft 312 kts 169°
2026-04-29 18:28 37.62954 26.62114 10033 ft 299 kts 165°
2026-04-29 18:29 37.61007 26.62847 10039 ft 282 kts 160°
2026-04-29 18:29 37.59818 26.63418 10038 ft 269 kts 156°
2026-04-29 18:29 37.58170 26.64383 9933 ft 253 kts 152°
2026-04-29 18:29 37.56677 26.65434 9756 ft 241 kts 147°
2026-04-29 18:30 37.55280 26.66586 9353 ft 239 kts 143°
2026-04-29 18:30 37.53561 26.68268 8908 ft 233 kts 138°
2026-04-29 18:30 37.52742 26.69173 8673 ft 230 kts 135°
2026-04-29 18:30 37.51596 26.70575 8279 ft 229 kts 131°
2026-04-29 18:31 37.50554 26.72052 7898 ft 227 kts 126°
2026-04-29 18:31 37.49616 26.73643 7529 ft 225 kts 121°
2026-04-29 18:31 37.48779 26.75293 7183 ft 222 kts 117°
2026-04-29 18:31 37.48031 26.76986 6825 ft 220 kts 114°
2026-04-29 18:32 37.47369 26.78716 6467 ft 218 kts 110°
2026-04-29 18:32 37.46301 26.82257 5746 ft 214 kts 103°
2026-04-29 18:32 37.45909 26.84021 5379 ft 211 kts 98°
2026-04-29 18:33 37.45854 26.85830 5022 ft 205 kts 77°
2026-04-29 18:33 37.46334 26.87471 4680 ft 198 kts 56°
2026-04-29 18:33 37.47245 26.88738 4306 ft 195 kts 35°
2026-04-29 18:33 37.48419 26.89495 4113 ft 185 kts 20°
2026-04-29 18:34 37.49663 26.89796 3903 ft 180 kts
2026-04-29 18:34 37.50494 26.89849 3785 ft 174 kts
2026-04-29 18:34 37.52032 26.89920 3498 ft 159 kts
2026-04-29 18:34 37.53079 26.89966 3326 ft 143 kts
2026-04-29 18:35 37.54062 26.90011 3138 ft 143 kts
2026-04-29 18:35 37.55047 26.90058 2900 ft 139 kts
2026-04-29 18:35 37.56012 26.90105 2707 ft 138 kts
2026-04-29 18:35 37.56972 26.90151 2561 ft 137 kts
2026-04-29 18:36 37.57935 26.90261 2508 ft 139 kts 12°
2026-04-29 18:36 37.58853 26.90647 2408 ft 140 kts 23°
2026-04-29 18:36 37.59708 26.91207 2279 ft 141 kts 29°
2026-04-29 18:36 37.60546 26.91859 2138 ft 143 kts 31°
2026-04-29 18:37 37.61391 26.92539 2005 ft 143 kts 31°
2026-04-29 18:37 37.62194 26.93208 1941 ft 135 kts 33°
2026-04-29 18:37 37.62999 26.93856 1727 ft 141 kts 30°
2026-04-29 18:37 37.63856 26.94478 1586 ft 143 kts 28°
2026-04-29 18:38 37.64705 26.95118 1513 ft 140 kts 31°
2026-04-29 18:38 37.65566 26.95717 1308 ft 145 kts 22°
2026-04-29 18:38 37.66529 26.96174 1098 ft 147 kts 17°
2026-04-29 18:38 37.67472 26.96463 865 ft 139 kts 359°
2026-04-29 18:39 37.68315 26.95910 621 ft 144 kts 311°
2026-04-29 18:39 37.68661 26.94739 497 ft 143 kts 284°
2026-04-29 18:39 37.68772 26.93463 257 ft 149 kts 279°
2026-04-29 18:39 37.68859 26.92140 49 ft 148 kts 274°
2026-04-29 18:40 37.68925 26.91071 28 ft 74 kts 274°
2026-04-29 18:40 37.68953 26.90639 28 ft 30 kts 275°
2026-04-29 18:40 37.68961 26.90542 28 ft 4 kts 215°
2026-04-29 18:40 37.68949 26.90575 28 ft 9 kts 86°
2026-04-29 18:41 37.69007 26.91062 28 ft 5 kts 46°
2026-04-29 18:41 37.69013 26.91102 28 ft 5 kts 88°
2026-04-29 18:42 37.69008 26.91143 28 ft 5 kts 99°
2026-04-29 18:42 37.69005 26.91183 28 ft 5 kts 91°
2026-04-29 18:42 37.69007 26.91218 28 ft 2 kts 57°
2026-04-29 18:42 37.69020 26.91226 28 ft 2 kts 19°
2026-04-29 18:43 37.69036 26.91228 28 ft 2 kts
2026-04-29 18:43 37.69052 26.91230 28 ft 2 kts
2026-04-29 18:43 37.69067 26.91231 28 ft 1 kts
2026-04-29 18:43 37.69068 26.91231 28 ft 0 kts